Hourly Weather Bolshie Selyutichi

Today, 19 June, Saturday

Time Temperature Precipitation Wind Pressure Humidity
00:00 +17°C° 0 mm 2 mps 754 mmHg 89%
01:00 +17°C° 0 mm 2 mps 754 mmHg 92%
02:00 +16°C° 0 mm 2 mps 754 mmHg 94%
03:00 +17°C° 0 mm 2 mps 754 mmHg 93%
04:00 +17°C° 0 mm 2 mps 754 mmHg 93%
05:00 +17°C° 0 mm 2 mps 754 mmHg 93%
06:00 +19°C° 0 mm 2 mps 754 mmHg 86%
07:00 +21°C° 0 mm 3 mps 754 mmHg 78%
08:00 +24°C° 0 mm 3 mps 754 mmHg 70%
09:00 +25°C° 0 mm 3 mps 754 mmHg 64%
10:00 +26°C° 0 mm 4 mps 754 mmHg 59%
11:00 +27°C° 0 mm 4 mps 754 mmHg 54%
12:00 +28°C° 0 mm 4 mps 753 mmHg 54%
13:00 +28°C° 0 mm 4 mps 753 mmHg 54%
14:00 +29°C° 0 mm 3 mps 753 mmHg 53%
15:00 +28°C° 0 mm 3 mps 752 mmHg 55%
16:00 +28°C° 0 mm 3 mps 752 mmHg 57%
17:00 +27°C° 0 mm 3 mps 752 mmHg 60%
18:00 +26°C° 0.1 mm 3 mps 752 mmHg 66%
19:00 +25°C° 0.1 mm 3 mps 752 mmHg 72%
20:00 +24°C° 0.1 mm 3 mps 752 mmHg 78%
21:00 +22°C° 0 mm 3 mps 752 mmHg 82%
22:00 +21°C° 0 mm 2 mps 752 mmHg 87%
23:00 +20°C° 0 mm 2 mps 752 mmHg 92%

Tomorrow, 20 June, Sunday

Time Temperature Precipitation Wind Pressure Humidity
00:00 +20°C° 0 mm 2 mps 752 mmHg 94%
01:00 +19°C° 0 mm 2 mps 752 mmHg 95%
02:00 +19°C° 0 mm 2 mps 752 mmHg 96%
03:00 +19°C° 0 mm 2 mps 752 mmHg 96%
04:00 +19°C° 0 mm 2 mps 752 mmHg 96%
05:00 +19°C° 0 mm 2 mps 752 mmHg 96%
06:00 +21°C° 0 mm 3 mps 752 mmHg 88%
07:00 +24°C° 0 mm 3 mps 752 mmHg 81%
08:00 +25°C° 0 mm 4 mps 752 mmHg 74%
09:00 +26°C° 0 mm 4 mps 752 mmHg 68%
10:00 +28°C° 0 mm 4 mps 751 mmHg 62%
11:00 +29°C° 0 mm 5 mps 751 mmHg 56%
12:00 +29°C° 0 mm 5 mps 751 mmHg 54%
13:00 +30°C° 0 mm 5 mps 751 mmHg 51%
14:00 +30°C° 0 mm 5 mps 751 mmHg 49%
15:00 +30°C° 0 mm 5 mps 750 mmHg 51%
16:00 +29°C° 0 mm 5 mps 750 mmHg 53%
17:00 +29°C° 0 mm 4 mps 750 mmHg 55%
18:00 +27°C° 0 mm 4 mps 750 mmHg 62%
19:00 +26°C° 0 mm 4 mps 750 mmHg 69%
20:00 +24°C° 0 mm 3 mps 750 mmHg 76%
21:00 +21°C° 0 mm 3 mps 750 mmHg 82%
22:00 +20°C° 0 mm 3 mps 750 mmHg 87%
23:00 +19°C° 0 mm 2 mps 750 mmHg 93%

Day after tomorrow, 21 June, Monday

Time Temperature Precipitation Wind Pressure Humidity
00:00 +19°C° 0 mm 2 mps 750 mmHg 93%
01:00 +19°C° 0 mm 2 mps 750 mmHg 92%
02:00 +19°C° 0 mm 2 mps 749 mmHg 92%
03:00 +19°C° 0 mm 2 mps 749 mmHg 92%
04:00 +19°C° 0 mm 2 mps 749 mmHg 92%
05:00 +19°C° 0 mm 2 mps 749 mmHg 92%
06:00 +20°C° 0 mm 3 mps 749 mmHg 84%
07:00 +22°C° 0 mm 3 mps 749 mmHg 77%
08:00 +25°C° 0 mm 3 mps 749 mmHg 69%
09:00 +26°C° 0 mm 4 mps 749 mmHg 64%
10:00 +27°C° 0 mm 4 mps 749 mmHg 59%
11:00 +28°C° 0 mm 4 mps 748 mmHg 54%
12:00 +28°C° 0 mm 4 mps 748 mmHg 55%
13:00 +28°C° 0 mm 3 mps 748 mmHg 56%
14:00 +28°C° 0 mm 3 mps 748 mmHg 58%
15:00 +29°C° 0 mm 3 mps 748 mmHg 59%
16:00 +29°C° 0 mm 2 mps 747 mmHg 60%
17:00 +29°C° 0 mm 2 mps 747 mmHg 61%
18:00 +28°C° 0 mm 2 mps 747 mmHg 66%
19:00 +27°C° 0 mm 2 mps 747 mmHg 71%
20:00 +25°C° 0 mm 2 mps 747 mmHg 75%
21:00 +24°C° 0 mm 2 mps 747 mmHg 79%
22:00 +23°C° 0 mm 2 mps 747 mmHg 83%
23:00 +22°C° 0 mm 3 mps 747 mmHg 87%

22 June, Tuesday

Time Temperature Precipitation Wind Pressure Humidity
00:00 +21°C° 0 mm 2 mps 747 mmHg 90%
01:00 +20°C° 0 mm 2 mps 748 mmHg 92%
02:00 +20°C° 0 mm 2 mps 748 mmHg 94%
03:00 +20°C° 0 mm 2 mps 748 mmHg 94%
04:00 +20°C° 0 mm 2 mps 748 mmHg 94%
05:00 +20°C° 0 mm 2 mps 748 mmHg 94%
06:00 +23°C° 0 mm 2 mps 748 mmHg 86%
07:00 +25°C° 0 mm 2 mps 748 mmHg 79%
08:00 +27°C° 0 mm 3 mps 748 mmHg 72%
09:00 +28°C° 0 mm 3 mps 748 mmHg 66%
10:00 +29°C° 0 mm 3 mps 748 mmHg 60%
11:00 +31°C° 0 mm 3 mps 748 mmHg 54%
12:00 +31°C° 0 mm 3 mps 748 mmHg 51%
13:00 +33°C° 0 mm 3 mps 748 mmHg 48%
14:00 +34°C° 0 mm 3 mps 748 mmHg 46%
15:00 +33°C° 0 mm 3 mps 748 mmHg 48%
16:00 +33°C° 0 mm 3 mps 748 mmHg 50%
17:00 +33°C° 0 mm 3 mps 748 mmHg 53%
18:00 +30°C° 0.1 mm 3 mps 748 mmHg 59%
19:00 +28°C° 0.1 mm 3 mps 748 mmHg 66%
20:00 +27°C° 0.1 mm 3 mps 748 mmHg 72%
21:00 +25°C° 0.6 mm 3 mps 748 mmHg 78%
22:00 +22°C° 0.6 mm 3 mps 748 mmHg 84%
23:00 +21°C° 0.6 mm 2 mps 748 mmHg 90%

23 June, Wednesday

Time Temperature Precipitation Wind Pressure Humidity
00:00 +20°C° 0 mm 2 mps 749 mmHg 91%
01:00 +20°C° 0 mm 2 mps 749 mmHg 93%
02:00 +19°C° 0 mm 2 mps 749 mmHg 94%
03:00 +19°C° 0 mm 2 mps 749 mmHg 94%
04:00 +19°C° 0 mm 2 mps 749 mmHg 94%
05:00 +19°C° 0 mm 2 mps 749 mmHg 94%
06:00 +21°C° 0 mm 2 mps 749 mmHg 86%
07:00 +24°C° 0 mm 2 mps 749 mmHg 79%
08:00 +26°C° 0 mm 2 mps 749 mmHg 71%
09:00 +28°C° 0 mm 2 mps 750 mmHg 64%
10:00 +30°C° 0 mm 2 mps 750 mmHg 57%
11:00 +32°C° 0 mm 2 mps 750 mmHg 49%
12:00 +33°C° 0 mm 3 mps 749 mmHg 47%
13:00 +34°C° 0 mm 3 mps 749 mmHg 45%
14:00 +35°C° 0 mm 3 mps 749 mmHg 42%
15:00 +35°C° 0 mm 3 mps 749 mmHg 44%
16:00 +35°C° 0 mm 3 mps 749 mmHg 47%
17:00 +34°C° 0 mm 3 mps 749 mmHg 49%
18:00 +31°C° 0 mm 3 mps 749 mmHg 57%
19:00 +29°C° 0 mm 3 mps 749 mmHg 66%
20:00 +27°C° 0 mm 3 mps 749 mmHg 75%
21:00 +26°C° 0 mm 3 mps 749 mmHg 78%
22:00 +25°C° 0 mm 3 mps 750 mmHg 82%
23:00 +24°C° 0 mm 2 mps 750 mmHg 86%

24 June, Thursday

Time Temperature Precipitation Wind Pressure Humidity
00:00 +24°C° 0 mm 2 mps 750 mmHg 88%
01:00 +23°C° 0 mm 2 mps 750 mmHg 90%
02:00 +21°C° 0 mm 2 mps 750 mmHg 92%
03:00 +21°C° 0 mm 2 mps 750 mmHg 93%
04:00 +23°C° 0 mm 2 mps 750 mmHg 93%
05:00 +23°C° 0 mm 1 mps 750 mmHg 93%
06:00 +24°C° 0 mm 2 mps 750 mmHg 85%
07:00 +26°C° 0 mm 3 mps 750 mmHg 77%
08:00 +28°C° 0 mm 3 mps 751 mmHg 69%
09:00 +30°C° 0 mm 3 mps 751 mmHg 62%
10:00 +31°C° 0 mm 3 mps 750 mmHg 55%
11:00 +33°C° 0 mm 3 mps 750 mmHg 48%
12:00 +34°C° 0 mm 3 mps 750 mmHg 45%
13:00 +35°C° 0 mm 3 mps 750 mmHg 42%
14:00 +35°C° 0 mm 3 mps 750 mmHg 39%
15:00 +35°C° 0 mm 3 mps 750 mmHg 41%
16:00 +35°C° 0 mm 3 mps 750 mmHg 43%
17:00 +34°C° 0 mm 3 mps 749 mmHg 45%
18:00 +30°C° 0.8 mm 3 mps 749 mmHg 57%
19:00 +27°C° 0.8 mm 3 mps 749 mmHg 69%
20:00 +23°C° 0.8 mm 4 mps 750 mmHg 81%
21:00 +22°C° 0.4 mm 3 mps 749 mmHg 83%
22:00 +23°C° 0.4 mm 2 mps 749 mmHg 85%
23:00 +21°C° 0.4 mm 2 mps 748 mmHg 87%
Show more